DW2274 Weather Reports


time (UTC)temp
C
wind
direction
speed
KPH
gust
KPH
rain 1hr
cm
rain 24hr
cm
rain mn
cm
humidity
%
barometer
mb
20260504050007 5 336 0.0 1.6 0.00 0.00 0.00 78 1016.7
20260504044512 5 336 0.0 0.0 0.00 0.00 0.00 75 1016.6
20260504043009 5 336 0.0 0.0 0.00 0.00 0.00 74 1016.7
20260504041504 5 336 0.0 0.0 0.00 0.00 0.00 75 1016.5
20260504040106 5 336 0.0 0.0 0.00 0.00 0.00 75 1016.5
20260504034613 6 336 0.0 0.0 0.00 0.00 0.00 75 1016.3
20260504033128 6 336 0.0 0.0 0.00 0.00 0.00 73 1016.1
20260504031603 6 336 0.0 0.0 0.00 0.00 0.00 71 1016.0
20260504030104 7 336 0.0 0.0 0.00 0.00 0.00 68 1016.0
20260504024557 7 336 0.0 0.0 0.00 0.00 0.00 65 1015.9
20260504023104 8 336 0.0 0.0 0.00 0.00 0.00 63 1016.0
20260504021557 8 336 0.0 0.0 0.00 0.00 0.00 61 1015.9
20260504020100 9 336 0.0 0.0 0.00 0.00 0.00 58 1015.9
20260504014555 9 336 0.0 0.0 0.00 0.00 0.00 54 1015.9
20260504013108 10 336 0.0 0.0 0.00 0.00 0.00 52 1015.8
20260504011556 10 336 0.0 0.0 0.00 0.00 0.00 49 1015.7
20260504010110 11 336 0.0 0.0 0.00 0.00 0.00 46 1015.5
20260504004617 11 336 0.0 0.0 0.00 0.00 0.00 45 1015.4
20260504003054 12 336 0.0 0.0 0.00 0.00 0.00 42 1015.2
20260504001601 12 336 0.0 0.0 0.00 0.00 0.00 41 1015.0
20260504000053 13 336 0.0 0.0 0.00 0.00 0.00 40 1015.1
20260503234552 13 268 0.0 0.0 0.00 0.00 0.00 39 1014.8
20260503233052 14 267 0.0 0.0 0.00 0.00 0.00 38 1014.6
20260503231555 14 267 0.0 0.0 0.00 0.00 0.00 36 1014.6
20260503230058 14 301 0.0 0.0 0.00 0.00 0.00 36 1014.6
20260503224651 15 280 0.0 0.0 0.00 0.00 0.00 34 1014.7
20260503223056 15 251 0.0 1.6 0.00 0.00 0.00 36 1014.5
20260503221552 15 231 0.0 0.0 0.00 0.00 0.00 34 1014.5
20260503220049 16 284 0.0 1.6 0.00 0.00 0.00 33 1014.6
20260503214547 16 295 0.0 0.0 0.00 0.00 0.00 33 1014.5
20260503213100 16 280 0.0 0.0 0.00 0.00 0.00 31 1014.4
20260503211546 16 292 0.0 1.6 0.00 0.00 0.00 31 1014.4
20260503210055 16 315 0.0 11.3 0.00 0.00 0.00 34 1014.5
20260503204551 16 270 0.0 1.6 0.00 0.00 0.00 34 1014.5
20260503203040 15 246 0.0 1.6 0.00 0.00 0.00 33 1014.6
20260503201540 15 271 0.0 1.6 0.00 0.00 0.00 35 1014.9
20260503200042 15 279 0.0 0.0 0.00 0.00 0.00 35 1014.8
20260503194540 15 288 0.0 1.6 0.00 0.00 0.00 36 1015.0
20260503193046 15 266 0.0 12.9 0.00 0.00 0.00 38 1015.2
20260503191538 15 283 0.0 1.6 0.00 0.00 0.00 36 1015.4
20260503190039 15 252 0.0 1.6 0.00 0.00 0.00 36 1015.5
20260503184543 15 196 0.0 0.0 0.00 0.00 0.00 41 1015.7
20260503183030 14 255 0.0 11.3 0.00 0.00 0.00 37 1015.9
20260503181529 14 224 0.0 1.6 0.00 0.00 0.00 39 1015.9
20260503180031 14 238 0.0 1.6 0.00 0.00 0.00 40 1016.0
20260503174524 13 234 0.0 0.0 0.00 0.00 0.00 42 1016.3
20260503173027 13 281 0.0 1.6 0.00 0.00 0.00 39 1016.1
20260503171523 13 305 0.0 1.6 0.00 0.00 0.00 39 1016.2
20260503081510 5 245 0.0 0.0 0.00 0.00 0.00 72 1014.2
20260503071510 5 275 0.0 1.6 0.00 0.00 0.00 72 1013.4
20260503054606 5 287 0.0 0.0 0.00 0.00 0.00 74 1013.6